Starlink 4372

operational
NORAD ID: 53233 Int'l Des: 2022-084 Owner: SPXS Country: US Constellation: starlink
LEOCIRCULARRETROGRADESSO

About Starlink 4372

Description loading...

Live Position

Loading 3D Globe...

Upcoming Passes

Altitude History

Altitude vs Time

uPlot chart will show altitude changes over time

Two-Line Element Set

1 53233U 22084AW 25259.88526248 -.00000360 00000-0 -23471-4 0 9990
2 53233 97.6022 320.0592 0000917 198.8313 161.2877 15.01257585173243
Epoch: Sep 16, 2025 • Age: 30 hours

Current Status

Altitude 590.8 km
Velocity 7.56 km/s
Sub-Earth Point -78.54°S, 44.31°W
Launch Date Jul 22, 2022
Age 3.1 years
Type internet

Technical Details

Classification Payload
Mass 297.00 kg
Dry Mass 275.00 kg
Total Mass 297.00 kg
Length 0.20 m
Diameter 2.80 m
Span 9.00 m
Shape Box + pan
Manufacturer SPXS
Bus Type Starlink
Phase Status In Orbit
Owner/State SPXS/US

Large Constellations

Loading constellations...